Location: Malvern Link
(52.1333°N, 2.3000°W)
Time: 04:27:11
(UTC+00:00)

DIWATA 2B (PO-101) - Pass Details

Date: 01 July 2022
Orbit: 583 x 599 km, 98.0° (Epoch: 13 August)

Event Time Altitude Azimuth Distance (km) Brightness Sun altitude
Exits shadow 01:39:49 10° 157° (SSE) 1,945 ? -12.4°
Reaches altitude 10° 01:39:50 10° 157° (SSE) 1,936 ? -12.4°
Maximum altitude 01:44:02 74° 73° (ENE) 629 ? -12.2°
Drops below altitude 10° 01:48:16 10° 349° (NNW) 1,953 ? -11.9°
Sets 01:50:27 0° 347° (NNW) 2,860 ? -11.8°
